Погода в Терновском

Россия / Воронежская область     51°05′51″N   41°05′54″E
темп.,
°C
ветер,
м/с
пор.,
м/с
влажн.,
%
обл.,
%
осадки,
мм/ч
давл.,
гПа
погр.,
м
7 мая, пт
пт700:00+14ю61261100 0.0 1011340
03:00+13ю51269100 0.0 1010333
06:00+11юз4986100 0.7 1010343
09:00+11ссз6788100 1.1 1012609
12:00+9сз4590100 0.9 1014460
15:00+12ссз676596 1.2 10151344
18:00+12с23615 0.0 1016995
21:00+8вюв227331 0.0 101811
8 мая, сб
сб800:00+7юв34775 0.0 101749
03:00+6юв45845 0.0 101778
06:00+7юв4884100 0.0 1016175
09:00+13ююв696020 0.0 1015596
12:00+17ю81054100 0.0 10121217
15:00+17ю61067100 0.1 10101051
18:00+17ю61269100 0.4 1009571
21:00+13зюз4993100 0.9 1009363
9 мая, вс
вс900:00+11з4894100 0.3 1010488
03:00+7сз61088100 0.3 1012572
06:00+7сз5889100 0.1 1013633
09:00+7ссз5888100 1.6 1014759
12:00+8с7985100 4.1 1015944
15:00+8с81080100 5.6 10161114
18:00+8с61081100 0.4 10181034
21:00+6ссз71381100 0.4 1020782
10 мая, пн
пн1000:00+6с71483100 0.0 1020842
03:00+6с81585100 0.0 1021951
06:00+6с101886100 0.3 1020863
09:00+6ссв111986100 1.1 1020838
12:00+7ссв101890100 0.6 1020640
15:00+8ссв91788100 0.9 1021663
18:00+11ссв9178588 0.0 1021771
21:00+10ссв81787100 0.0 1021682
11 мая, вт
вт1100:00+9ссв81690100 0.1 1021530
03:00+8ссв8169299 0.1 1021542
06:00+9ссв8169196 0.1 1021585
09:00+13св9137995 0.1 1022819
12:00+13всв91383100 0.4 10221082
15:00+15в71076100 1.1 10231290
18:00+14вюв246712 0.1 1024560
21:00+10с3686100 0.1 102394